Hourly Weather Roundup
Issued by NWS Central Illinois

Home | Current Version | Previous Version | Text Only | Print | Product List | Glossary On
Versions: 1 2 3 4 5 6 7 8 9 10 11 12 13 14 15 16 17 18 19 20 21 22 23 24 25 26 27 28 29 30 31 32 33 34 35 36 37 38 39 40 41 42 43 44 45 46 47 48 49 50
000
NZUS43 KILX 290410
HWRILX

Area Weather Roundup
National Weather Service Lincoln IL
1100 PM CDT WED JUN 28 2017

NOTE:  "FAIR" indicates few or no clouds below 12,000 feet, with
       no sigificant weather and/or obstructions to visibility.


CITY           SKY/WX    TMP DP  RH WIND       PRES   REMARKS
Bloomington    MOCLDY    76  63  64 S22G30    29.86R
Champaign      CLOUDY    74  62  66 S15       29.91R
Danville       CLOUDY    73  62  66 S12       29.90R
Decatur        CLOUDY    76  62  62 S17       29.89S
Effingham      CLOUDY    75  65  71 SE6       29.96R
Flora          CLOUDY    74  67  76 S8        29.95S
Galesburg      LGT RAIN  78  64  61 S24G35    29.73S
Jacksonville   MOCLDY    78  60  53 S12G17    29.87R HX  80
Lacon          CLOUDY    78  63  58 S16G24    29.78R HX  80
Lawrenceville  PTCLDY    68  64  87 S8        29.97S
Litchfield     CLOUDY    75  64  70 S13       29.92R
$$


CITY           SKY/WX    TMP DP  RH WIND       PRES   REMARKS
Lincoln        CLOUDY    78  64  63 S10G21    29.87R HX  80
Macomb         CLOUDY    74  65  74 SW17G24   29.85R
Mattoon        CLOUDY    75  66  73 S9        29.93R
Mt Carmel AP   CLOUDY    72  62  72 S8        29.97S
Olney-Noble AP CLOUDY    73  69  89 S9        29.95F
Paris AP       MOCLDY    73  63  72 S10       29.95R
Peoria         CLOUDY    78  63  59 S22       29.81R HX  80
Pontiac        CLOUDY    77  64  63 S18G26    29.82F
Rantoul        MOCLDY    77  65  66 S15G23    29.89F
Robinson       CLOUDY    67  61  80 S6        29.96F
Springfield    CLOUDY    80  65  59 S13G23    29.87R HX  82
Taylorville    CLOUDY    74  64  69 S13       29.90S
$$

...REGIONAL REPORTS...


CITY           SKY/WX    TMP DP  RH WIND       PRES   REMARKS
Chicago O`Hare LGT RAIN  68  65  90 NE8       29.85R
Kankakee       CLOUDY    75  63  64 S12G17    29.86F
Moline         CLOUDY    80  65  59 SW10      29.72R HX  82
Mount Sterling CLOUDY    75  64  67 S8        29.87R
Mount Vernon   PTCLDY    74  65  73 S7        29.95F
Pittsfield     CLOUDY    78  64  62 S7        29.88R HX  80
Quincy         CLOUDY    77  65  66 SW8       29.88R
Rockford       CLOUDY    66  64  93 SE12      29.77F
$$


CITY           SKY/WX    TMP DP  RH WIND       PRES   REMARKS
Burlington     TSTM      74  69  85 S32G47    29.72S
Cedar Rapids   CLOUDY    68  68 100 S5        29.68F
Des Moines     CLOUDY    71  65  81 SW9       29.69R
Kirksville     TSTM      66  66 100 S20       29.86F
Ottumwa        CLOUDY    75  62  64 SW13G21   29.71R
St Louis       CLOUDY    82  64  54 S12       29.91R HX  83
$$


CITY           SKY/WX    TMP DP  RH WIND       PRES   REMARKS
Terre Haute    CLOUDY    73  59  61 S9        29.95S
Evansville     CLEAR     75  62  64 MISG      29.99R
Indianapolis   PTCLDY    70  57  63 S14       29.97S
Lafayette      CLOUDY    71  59  65 S8        29.92R
Madison        CLOUDY    67  66  97 S12       29.70F
Milwaukee      TSTM      66  64  93 S15G24    29.79R
$$






USA.gov is the U.S. government's official web portal to all federal, state and local government web resources and services.